COSMOS 1544 (14819 NORAD) Tracking and Keplerian Element Data

This shows tracking and keplerian element data for the satellite.

Feedback or suggestion? Click here.




ElementValue
Catalog14819
NameCOSMOS 1544
Epoch Orbit7131
Epoch Day15.84143858
Epoch Year2022
RAAN140.8957
Inclination82.483
Eccentricity0.0011474
Argument of Perigee254.2086
Mean Anonmoly105.7889
Mean Motion15.3000322
Decay Rate5.627E-05
L11 14819U 84027A 22015.84143858 .00005627 00000+0 19231-3 0 9993
L22 14819 82.4830 140.8957 0011474 254.2086 105.7889 15.30003220 71314

Live tracking and technical data element details for COSMOS 1544 (NORAD 14819). COSMOS 1544 can be tracked NOW for your location showing map with azimuth and elevation plus other details from your city location.

Track the satellite on the map from your city or location and see movement details for azimuth, elevation, latitude, longitude, range, height, and movement on the map or in text.







IsCatalogInMostPopularTable: catalog: 14819, numindb: 268
Update: records affected: 1



GetName: 14819 COSMOS 1544

Hit Count: updated at: Mon, 17 Jan 2022 01:38:35 GMT